Fort Wayne Police Department
Fort Wayne Police Department
Emergencies Call: 911
Non-Emergencies: (260) 427-1222
report drug house

Daily Activity Logs

Activity Log for January 10, 2014 Community Search

Incident Time Nature Address
14F003878 00:03:09 62 PARTY ARMED 300 FLEMING AVE E
14F003881 00:04:07 43 DISTURBANCE 300 FLEMING AVE E
14F003880 00:08:57 911 HANG UP 200 MAPLE GROVE AVE E & CALUMET AV
14F003879 00:09:39 46 DOMESTIC 800 HIGH ST
14F003882 00:15:50 34 TRAFF HAZARD 30500 I 69 SB
14F003883 00:20:57 30 TRAFFIC STOP 4700 STELLHORN RD & REED RD
14F003884 00:34:41 33,34 3800 STELLHORN RD & WYANDOTTE DR
14F003885 00:35:04 45 NEIGHBORHOOD 500 WAGNER ST
14F003886 00:38:43 36 OCCUPIED VEH 2600 LUDWIG RD W & INNOVATION BLVD
14F003887 00:45:20 65T SUICIDE THR 900 CHARLOTTE AVE
14F003888 00:47:38 46 DOMESTIC 400 SUTTENFIELD AVE E
14F003889 00:50:29 33,34 5600 HANNA ST S & DECATUR RD
14F003890 00:58:01 911 HANG UP 400 JEFFERSON BLVD E & CLAY ST
14F003891 01:02:58 911 HANG UP 400 SUTTENFIELD AVE E
14F003892 01:03:04 34 TRAFF HAZARD 3300 LILLIE ST
14F003893 01:07:40 96IP 7900 DECATUR RD
14F003894 01:11:35 46 DOMESTIC 400 SUTTENFIELD AVE E
14F003895 01:17:10 43 DISTURBANCE 1700 MAIN ST W
14F003897 01:23:27 48,35 1800 GETZ RD
14F003896 01:24:43 96IP 2400 FAIRFIELD AVE
14F003898 01:38:42 46,96 2200 CHARLOTTE AVE
14F003899 01:41:38 103 UNWANTED 2400 JEFFERSON BLVD W
14F003900 01:45:37 48 SUSPICIOUS 2700 MAUMEE AVE
14F003901 01:47:06 40I INTRUSION 1400 DUPONT RD W
14F003902 01:50:14 43 DISTURBANCE 3300 LILLIE ST
14F003903 01:50:47 102,TX THREATS 800 LARCH LN
14F003905 02:01:44 46 DOMESTIC 5100 WOODMARK DR
14F003904 02:02:45 33 DISABLED VEH 6600 BLUFFTON RD & WAYNEWOOD DR
14F003906 02:08:38 30 TRAFFIC STOP 1200 JEFFERSON BLVD W & NELSON ST
14F003907 02:10:28 55 FIGHT 2400 OLIVER ST
14F003910 02:17:11 28 DUI 1600 WELLS ST & SPRING ST
14F003908 02:18:14 129 7500 LAKERIDGE DR
14F003909 02:19:36 911 HANG UP 1200 SCOTT AVE
14F003911 02:26:32 33,34 300 PONTIAC ST E & LAFAYETTE ST S
14F003912 02:27:40 48 SUSPICIOUS 700 BROADWAY
14F003914 02:28:48 96 BATTERY 7100 DECATUR RD
14F003913 02:32:46 48 SUSPICIOUS 1600 CHEROKEE RD
14F003915 02:40:31 48 SUSPICIOUS 2700 BELLE VISTA BLVD
14F003916 02:44:30 48 SUSPICIOUS 600 VAN BUREN ST & MAIN ST W
14F003917 02:48:21 33 DISABLED VEH 31200 I 69 SB
14F003918 02:48:55 33,34 4500 BLUFFTON RD
14F003919 02:51:58 66 72 HOUR 2200 RANDALLIA DR
14F003920 03:09:00 34 TRAFF HAZARD 3200 STELLHORN RD & HOBSON RD
14F003921 03:09:59 46 DOMESTIC 2400 OLIVER ST
14F003922 03:12:33 96JO 6000 LIMA RD
14F003923 03:17:01 20 PROBLEM UNK 10800 PINE MILLS RD
14F003924 03:33:47 25HS HIT SKIP 200 RUDISILL BLVD E & CLINTON ST S
14F003925 03:41:39 48 SUSPICIOUS 4600 HEATHERWIND DR
14F003927 03:46:13 43 DISTURBANCE 500 GLENFIELD DR
14F003926 03:51:08 43 DISTURBANCE 2100 EDEN ST
14F003928 03:52:06 103 UNWANTED 6300 ILLINOIS RD
14F003929 04:04:38 25,86 2000 CORTLAND AVE
14F003930 04:08:44 50IP BURG I/P 8300 WYOMING PASS
14F003931 04:09:39 63 CONTACT 400 MONTE VISTA DR
14F003932 04:11:20 43 DISTURBANCE 1900 BROADWAY
14F003933 04:15:35 43 DISTURBANCE 600 TAYLOR ST
14F003934 04:22:35 43 DISTURBANCE 2400 OLIVER ST
14F003935 04:31:29 30 TRAFFIC STOP 3700 TAYLOR ST & ARDMORE AVE
14F003936 04:35:15 48 SUSPICIOUS 2800 FREEMAN ST
14F003937 04:51:50 53 ARMED ROB 3000 COLISEUM BLVD W
14F003940 04:53:12 40A AUDIBLE 5100 COLDWATER RD
14F003938 04:58:41 33 DISABLED VEH 10100 ILLINOIS RD & SCOTT RD S
14F003939 05:03:48 30 TRAFFIC STOP 7600 LIMA RD & GROVE DR
14F003941 05:13:22 103 UNWANTED 900 WASHINGTON BLVD E
14F003942 05:24:45 46,96 1000 COLISEUM BLVD W
14F003943 05:43:25 63 CONTACT 6100 GRAYMOOR LN
14F003944 06:07:13 33,34 4500 PAULDING RD E & WAYNE TRACE
14F003946 06:12:41 911 HANG UP 900 RIDGEWOOD DR
14F003945 06:13:11 40A AUDIBLE 3400 FREEMAN ST
14F003948 06:23:16 911 HANG UP 2900 CLINTON ST N
14F003947 06:24:22 40I INTRUSION 3400 SHERMAN BLVD
14F003950 06:31:31 40A AUDIBLE 500 BLUEBERRY LN
14F003949 06:32:47 40A AUDIBLE 12000 KINGSBRIDGE RD
14F003951 06:32:57 25HS HIT SKIP 9500 MAYSVILLE RD & STELLHORN RD
14F003952 06:40:24 30 TRAFFIC STOP 5100 MINNICH RD & I 469 SB
14F003953 06:51:19 40 ALARM 4500 INVESTMENT DR
14F003954 06:56:20 34 TRAFF HAZARD 1000 LAKE AVE
14F003955 07:14:23 33,34 5800 LIMA RD & WASHINGTON CENTER R
14F003956 07:21:04 51 THEFT 5000 MADIERA DR
14F003958 07:22:13 66 72 HOUR 2200 RANDALLIA DR
14F003957 07:25:47 26 PI ACCIDENT 1000 BROADWAY & JEFFERSON BLVD W
14F003959 07:27:38 108 FOLLOWUP 2500 ANTHONY BLVD N
14F003960 07:34:14 34 TRAFF HAZARD 4900 OLD MAYSVILLE RD
14F003962 07:37:22 33,34 1000 DELAWARE AVE & KENTUCKY AVE
14F003961 07:43:12 HARASSMENT 700 FOX ORCHARD RUN
14F003963 07:47:15 34 TRAFF HAZARD 700 TAYLOR ST
14F003964 07:51:18 30 TRAFFIC STOP 10300 LIMA RD & DUPONT RD W
14F003965 07:53:34 26 PI ACCIDENT 1700 DUPONT RD W & LIMA RD
14F003966 08:00:10 33,34 8800 ARDMORE AVE & AIRPORT EXPRESS
14F003967 08:08:11 911 HANG UP 900 JEFFERSON BLVD W
14F003968 08:08:34 47 REMOVE ITEMS 1800 KENTUCKY AVE
14F003969 08:17:30 25 PD ACCIDENT 4700 LIMA RD
14F003970 08:21:46 40A AUDIBLE 2400 COLISEUM BLVD S
14F003971 08:32:29 33J LOCKED OUT 1800 LINK ST
14F003973 08:37:43 33,34 300 COLLINS RD E & COLDWATER RD
14F003972 08:41:49 33,34 4300 PLAZA DR & STANDISH DR
14F003974 08:48:44 30 TRAFFIC STOP 31300 I 69 NB
14F003975 08:48:46 48 SUSPICIOUS 10400 UNITA DR
14F003976 08:49:54 63 CONTACT 4400 GAYWOOD DR
14F003977 08:50:36 103 UNWANTED 200 COLISEUM BLVD E
14F003978 08:53:04 129 300 FOURTH ST W & WELLS ST
14F003979 08:57:41 63 CONTACT 2300 MORRIS ST
14F003981 08:59:51 50 BURGLARY 6200 ST JOE CENTER RD
14F003980 09:00:43 18 WORK TRAFFIC 100 STATE BLVD E & CLINTON ST N
14F003982 09:02:04 102 THREATS 00 MAIN ST E
14F003983 09:05:33 40A AUDIBLE 4600 CREEK RIDGE PL
14F003985 09:12:43 25HS HIT SKIP 600 RIDGEMOOR DR
14F003984 09:13:32 129 3800 CALHOUN ST S
14F003986 09:15:49 48,36 2900 ASHCROFT DR
14F003987 09:17:11 46 DOMESTIC 2900 STATE BLVD E
14F003988 09:27:36 40A AUDIBLE 3200 WELLS ST
14F003990 09:36:24 EMS 5900 HESSEN CASSEL RD
14F003993 09:36:51 108 FOLLOWUP 00 MAIN ST E
14F003991 09:42:45 911 HANG UP 1400 ELIZA ST
14F003992 09:43:43 33,34 3900 OLD MILL RD & RUDISILL BLVD W
14F004000 09:48:36 50,ATTEMPTED 8100 BRIDGEWAY CIR
14F003995 09:51:53 911 HANG UP 3200 CALHOUN ST S
14F003994 09:52:29 911 HANG UP 1500 ROOSEVELT DR
14F003996 09:55:35 50,ATTEMPTED 7700 COLDWATER RD
14F003999 09:59:20 66 MENTALLY ILL 2300 HARRISON ST S
14F003997 10:00:00 63 CONTACT 800 BIMINI LN
14F003998 10:02:35 43 DISTURBANCE 200 RUDISILL BLVD E
14F004001 10:08:27 25,86 6600 LUDWIG CIR & LUDWIG RD W
14F004003 10:11:18 50 BURGLARY 8800 COLDWATER RD
14F004002 10:14:54 18 WORK TRAFFIC 900 CLINTON ST S
14F004004 10:19:12 25HS HIT SKIP 300 COLISEUM BLVD E
14F004005 10:21:42 113 SHOTS FIRED 4400 CALHOUN ST S
14F004006 10:33:48 63 CONTACT 3300 DIPLOMAT DR
14F004007 10:36:45 43 DISTURBANCE 600 LEWIS ST E & HANNA ST S
14F004008 10:37:11 25HS HIT SKIP 1400 LEWIS ST E
14F004011 10:44:05 63 CONTACT 3700 WASHINGTON BLVD E
14F004009 10:44:22 911 HANG UP 1000 NELSON ST
14F004010 10:46:24 63 CONTACT 4800 PALATINE DR
14F004012 10:57:01 46,96 2300 SANTA ROSA DR
14F004013 10:59:17 96 BATTERY 5900 BUNT DR
14F004014 11:02:17 33,34 3700 COVINGTON RD & ARDMORE AVE
14F004015 11:03:17 17 MOTOR CHECK 6200 COMMODITY CT
14F004017 11:14:18 14 WARRANT 3300 WAYNE TRACE
14F004016 11:15:17 911 HANG UP 300 WILLIAMS ST W
14F004024 11:20:35 911 HANG UP 6600 STATE BLVD E
14F004021 11:22:39 17 MOTOR CHECK 5700 COVENTRY LN
14F004018 11:23:34 25 PD ACCIDENT 4600 JEFFERSON BLVD W
14F004019 11:24:08 911 HANG UP 1400 EAGLE ST
14F004020 11:27:12 46 DOMESTIC 3500 CHEVIOT DR
14F004022 11:28:12 43 DISTURBANCE 1100 GOSHEN AVE
14F004023 11:28:19 50 BURGLARY 5100 COVINGTON RD
14F004025 11:39:25 63 CONTACT 2500 DREXEL AVE
14F004026 11:42:00 66 MENTALLY ILL 5600 STANDISH DR
14F004027 11:46:17 50 BURGLARY 2700 KENWOOD AVE
14F004030 11:49:22 45 NEIGHBORHOOD 3200 HARVESTER AVE
14F004029 11:53:00 43 DISTURBANCE 6500 STELLHORN RD
14F004028 11:53:40 16V PICKUP VID 00 MAIN ST E
14F004031 11:58:16 46,96 700 EWING ST
14F004032 12:03:33 17 MOTOR CHECK 5100 TRUEMPER WAY
14F004033 12:06:23 65T SUICIDE THR 300 SUPERIOR ST E
14F004034 12:07:45 43 DISTURBANCE 1300 ZOLLARS AVE
14F004035 12:08:28 46,96 800 ARCHER AVE
14F004038 12:08:29 911 HANG UP 2700 PRINCETON AVE
14F004036 12:09:16 40A AUDIBLE 2500 HOAGLAND AVE
14F004065 12:10:00 TOW 500 DUPONT RD E
14F004037 12:11:47 46 DOMESTIC 900 RUDISILL BLVD W
14F004039 12:14:44 48 SUSPICIOUS 4200 JEFFERSON BLVD W
14F004046 12:16:08 16,97 5100 MACY LN
14F004040 12:16:49 911 HANG UP 2500 WEISSER PARK AVE
14F004045 12:17:21 25HS HIT SKIP 1800 BLUFFTON RD
14F004041 12:23:15 30 TRAFFIC STOP 100 CONGRESS AVE & CALHOUN ST S
14F004043 12:25:12 37 PARKING VIOL 1900 CREIGHTON AVE E
14F004042 12:25:13 30 TRAFFIC STOP 1500 BERRY ST E
14F004058 12:28:36 108 FOLLOWUP 300 HOOVER DR E
14F004044 12:29:31 37 PARKING VIOL 1000 HOME AVE
14F004048 12:30:35 25HS HIT SKIP 7500 GATHINGS DR
14F004047 12:35:52 40P PANIC ALARM 4200 MIRADA DR
14F004049 12:41:21 101 OPEN DOOR 2100 MINER ST
14F004052 12:42:37 EMS 2100 CHERI CT
14F004050 12:44:09 00 MAIN ST E
14F004053 12:44:22 911 HANG UP 8800 STAR PINE WAY
14F004054 12:45:58 911 HANG UP 800 COLISEUM BLVD N
14F004068 12:47:43 99 NARCOTICS 2000 BROADWAY
14F004055 12:48:50 40H HOLDUP ALRM 2300 CALHOUN ST S
14F004060 12:49:46 17 MOTOR CHECK 8200 BAER RD
14F004059 12:50:57 911 HANG UP 8100 CLINTON ST N
14F004067 12:51:01 51 THEFT 1700 ST JOE RIVER DR
14F004056 12:51:08 00 MAIN ST E
14F004061 12:53:05 25 PD ACCIDENT 300 STATE BLVD W & WELLS ST
14F004057 12:54:17 25 PD ACCIDENT 900 HARRISON ST S
14F004062 12:57:51 911 HANG UP 4600 WERLING DR
14F004064 12:59:01 25HS HIT SKIP 2000 LAKE VIEW DR
14F004063 13:00:11 00 MAIN ST E
14F004138 13:04:01 108 FOLLOWUP 6500 COVINGTON RD
14F004066 13:05:40 25 PD ACCIDENT 6300 LANGWOOD BLVD
14F004087 13:05:41 34 TRAFF HAZARD 1000 LOREE ST
14F004069 13:11:13 11C CAGE CAR 00 MAIN ST E
14F004070 13:11:31 40 ALARM 8800 CRESTFIELD CT
14F004100 13:23:38 102,TX THREATS 1900 RANDALLIA DR
14F004072 13:23:58 911 HANG UP 2600 LYNN AVE
14F004071 13:25:32 55 FIGHT 1600 REED RD
14F004086 13:26:41 1 MEET 3200 ANTHONY BLVD N
14F004074 13:32:02 17 MOTOR CHECK 7300 VENTURE LN
14F004073 13:32:30 51 THEFT 4000 HESSEN CASSEL RD
14F004076 13:33:07 40A AUDIBLE 6300 BECKER DR
14F004075 13:33:39 40H HOLDUP ALRM 400 STATE BLVD W
14F004078 13:38:07 911 HANG UP 5200 ILLINOIS RD
14F004077 13:38:29 38 LOST/STOLEN 3500 EUCLID AVE
14F004082 13:39:31 25HS HIT SKIP 1400 ST MARYS AVE
14F004079 13:46:14 27 RECKLESS DRI 1900 COLISEUM BLVD S & NEW HAVEN A
14F004085 13:53:53 51,35 400 BASS ST
14F004081 13:55:09 40A AUDIBLE 4600 LAFAYETTE ST S
14F004083 13:59:52 129 8700 WOODSTREAM DR
14F004084 14:00:20 99 NARCOTICS 00 MAIN ST E
14F004088 14:05:07 129 8700 WOODSTREAM DR
14F004089 14:05:18 30 TRAFFIC STOP 400 TILLMAN RD W & LOWER HUNTINGTO
14F004092 14:08:02 33,34 5200 MCCLELLAN ST
14F004090 14:10:57 30 TRAFFIC STOP 4100 PAUL SHAFFER DR & COLISEUM BL
14F004091 14:13:10 30 TRAFFIC STOP 1200 GETZ RD & ILLINOIS RD
14F004094 14:14:30 56 MOLESTING 1100 SUMMIT ST
14F004093 14:15:27 25HS HIT SKIP 4300 SPATZ AVE
14F004099 14:16:39 46 DOMESTIC 10300 WESTLAKES DR N
14F004096 14:19:49 102,TX THREATS 1900 SWEET CIDER RD
14F004095 14:23:03 37 PARKING VIOL 1100 HIGH ST
14F004098 14:25:07 911 HANG UP 4700 WINTER ST
14F004097 14:26:03 30 TRAFFIC STOP 6100 CLINTON ST N
14F004101 14:32:15 911 HANG UP 1800 BLUFFTON RD
14F004102 14:35:40 33 DISABLED VEH 3800 REED ST & RUDISILL BLVD E
14F004105 14:36:42 63 CONTACT 3400 DUPONT RD E
14F004103 14:37:59 30 TRAFFIC STOP 6500 JEFFERSON BLVD W
14F004104 14:38:00 911 HANG UP 7300 LIMA RD
14F004106 14:40:19 63 CONTACT 7500 SOUTHTOWN XING
14F004107 14:46:54 51 THEFT 400 JEFFERSON BLVD W
14F004109 14:49:01 11C CAGE CAR 00 MAIN ST E
14F004108 14:50:09 30 TRAFFIC STOP 3800 COLDWATER RD
14F004113 14:50:29 22I JUV INVEST 3400 FELICIAN ST
14F004110 14:53:41 37 PARKING VIOL 2000 TYLER AVE
14F004112 14:59:08 30 TRAFFIC STOP 1100 SHERMAN BLVD & HIGH ST
14F004111 14:59:09 17 MOTOR CHECK 2700 ADAMS ST
14F004115 15:00:35 911 HANG UP 3400 CONESTOGA DR
14F004118 15:01:42 33J LOCKED OUT 6300 LIMA RD
14F004116 15:02:54 40A AUDIBLE 1200 HUFFMAN ST
14F004117 15:03:50 17 MOTOR CHECK 800 AVENUE OF AUTOS
14F004119 15:05:21 23 VANDALISM 10600 KNOLLTON RUN
14F004121 15:06:45 34 TRAFF HAZARD 2100 COLISEUM BLVD E
14F004120 15:07:32 51 THEFT 7300 DECATUR RD
14F004124 15:10:29 101 OPEN DOOR 600 HUFFMAN ST
14F004122 15:12:45 65T SUICIDE THR 2200 RANDALLIA DR
14F004139 15:14:15 16,97 8300 WYOMING PASS
14F004123 15:14:33 51 THEFT 100 PETTIT AVE E
14F004125 15:16:38 40A AUDIBLE 300 THOMAS RD S
14F004126 15:19:06 51,35 1700 WAYNE ST E
14F004127 15:19:19 DROWNING 2500 SHERIDAN RD
14F004151 15:20:57 45 NEIGHBORHOOD 00 MAIN ST E
14F004128 15:22:12 33,34 800 RUNNION AVE & WHEELER ST
14F004130 15:25:09 103 UNWANTED 1000 KENWOOD AVE
14F004131 15:25:18 11C CAGE CAR 2200 FAIRFIELD AVE
14F004129 15:25:21 48 SUSPICIOUS 600 LEWIS ST E & HANNA ST S
14F004133 15:25:30 25HS HIT SKIP 700 MCKEE ST & HANNA ST S
14F004132 15:28:54 37 PARKING VIOL 300 JACOBS AVE
14F004134 15:32:43 108 FOLLOWUP 2100 MINER ST
14F004135 15:34:19 37 PARKING VIOL 6900 FORESTVIEW DR
14F004136 15:34:52 911 HANG UP 5300 COLDWATER RD
14F004137 15:35:13 62 PARTY ARMED 31600 I 69 NB
14F004141 15:39:40 66 MENTALLY ILL 6000 ROCK CREEK PL
14F004140 15:42:03 30 TRAFFIC STOP 1200 HILLEGAS RD S & ILLINOIS RD
14F004142 15:45:10 33,34 6000 DOWNINGTOWN DR
14F004143 15:45:48 102 THREATS 1400 MEYER RD
14F004144 15:46:55 37 PARKING VIOL 2100 BEVEL AVE
14F004145 15:48:10 33,34 3800 AIRPORT EXPRESSWAY & ARDMORE
14F004146 15:49:49 30 TRAFFIC STOP 4300 REED ST & SENATE AVE
14F004147 15:50:17 37 PARKING VIOL 2000 EBY AVE
14F004148 15:51:41 51 THEFT 7300 RIDGE KNOLL DR
14F004150 15:53:48 40A AUDIBLE 4000 SMITH ST
14F004149 15:55:00 37 PARKING VIOL 1900 BROWN ST
14F004153 16:01:04 46,96 400 DOWNING AVE
14F004154 16:02:39 30 TRAFFIC STOP 4100 CLINTON ST N
14F004158 16:06:39 25 PD ACCIDENT 3000 HANNA ST S
14F004155 16:07:13 26 PI ACCIDENT 6000 JEFFERSON BLVD W & COVINGTON
14F004156 16:07:15 911 HANG UP 4800 STATE BLVD E
14F004157 16:08:10 911 HANG UP 7900 SERENITY DR
14F004161 16:10:54 50 BURGLARY 500 BLUEBERRY LN
14F004160 16:13:27 45 NEIGHBORHOOD 1700 NORTHHIGHLANDS BLVD
14F004159 16:14:07 37 PARKING VIOL 2100 JULIETTE AVE
14F004162 16:17:28 37 PARKING VIOL 2100 JULIETTE AVE
14F004165 16:20:39 911 HANG UP 2800 HOLTON AVE
14F004163 16:21:27 37 PARKING VIOL 2200 JULIETTE AVE
14F004164 16:22:07 16V PICKUP VID 00 MAIN ST E
14F004166 16:25:07 37 PARKING VIOL 1700 HALE AVE
14F004169 16:25:24 46 DOMESTIC 4700 BOWSER AVE
14F004173 16:26:35 17 MOTOR CHECK 4500 GAYWOOD DR
14F004179 16:27:00 22RC RECOVERY 1200 RUDISILL BLVD E
14F004167 16:28:39 33,34 1200 CAPITOL AVE & BOWSER AVE
14F004168 16:29:15 30 TRAFFIC STOP 4100 LIMA RD
14F004170 16:29:44 25 PD ACCIDENT 1900 GOSHEN RD & BUTLER RD
14F004171 16:34:31 911 HANG UP 3900 SOUTHPARK DR
14F004172 16:35:44 40A AUDIBLE 200 LANDAU RUN
14F004174 16:35:55 63 CONTACT 1000 STATE BLVD W & ST MARYS AVE
14F004175 16:38:45 33,34 3100 JEFFERSON BLVD W & LINDENWOOD
14F004178 16:38:55 25 PD ACCIDENT 4700 WASHINGTON BLVD E
14F004176 16:40:40 33,34 300 COLISEUM BLVD E & COLDWATER RD
14F004177 16:41:07 17 MOTOR CHECK 2200 FAIRFIELD AVE
14F004180 16:47:07 38 LOST/STOLEN 200 RUDISILL BLVD E
14F004183 16:48:38 34 TRAFF HAZARD 4800 WARSAW ST
14F004181 16:49:42 40H HOLDUP ALRM 2300 CALHOUN ST S
14F004182 16:51:21 25 PD ACCIDENT 2700 STATE BLVD E & BEACON ST
14F004184 16:52:25 33,34 700 DUPONT RD E & COLDWATER RD
14F004185 16:53:39 911 HANG UP 1900 WOODHAVEN DR
14F004186 16:55:56 1 MEET 4200 WELLS ST
14F004189 16:56:42 63 CONTACT 2400 ELYETTA ST
14F004187 16:59:31 96JO 3500 COLISEUM BLVD W
14F004191 17:01:40 46 DOMESTIC 4300 TAMARACK DR
14F004188 17:02:14 44FW 2100 SHORT ST
14F004192 17:05:03 46 DOMESTIC 2700 WASHINGTON CENTER RD W
14F004190 17:07:30 30 TRAFFIC STOP 7900 LIMA RD & COREE DR
14F004195 17:16:13 19 ESCORT 00 MAIN ST E
14F004193 17:21:29 15 ASSIST 6000 JEFFERSON BLVD W & GETZ RD
14F004194 17:22:55 129 300 COX DR W
14F004196 17:28:03 30 TRAFFIC STOP 800 STATE BLVD W & SHERMAN BLVD
14F004207 17:33:19 56 MOLESTING 00 MAIN ST E
14F004197 17:33:52 99 NARCOTICS 00 MAIN ST E
14F004198 17:34:03 50,ATTEMPTED 2900 COLISEUM BLVD W
14F004199 17:39:56 43 DISTURBANCE 4600 WASHINGTON BLVD E
14F004201 17:42:26 43 DISTURBANCE 900 LUDWIG PARK DR
14F004200 17:42:52 66 MENTALLY ILL 5100 TRUEMPER WAY
14F004202 17:43:34 911 HANG UP 300 FERNHILL AVE E
14F004203 17:48:03 33,34 1400 CLINTON ST N & FOURTH ST E
14F004204 17:51:09 33,34 3500 ILLINOIS RD & JEFFERSON BLVD
14F004205 17:52:34 33,34 2900 HANNA ST S & COLERICK ST
14F004206 17:55:07 129 4500 PLAZA DR
14F004210 17:57:47 46 DOMESTIC 4700 SOUTHPARK DR
14F004208 17:59:08 911 HANG UP 3200 DIPLOMAT DR
14F004209 18:03:52 33,34 300 RUDISILL BLVD E & LAFAYETTE ST
14F004211 18:05:33 15 ASSIST 2200 RANDALLIA DR
14F004212 18:09:31 30 TRAFFIC STOP 2700 STATE BLVD E & BEACON ST
14F004213 18:10:43 911 HANG UP 1400 WELLS ST
14F004214 18:12:32 33,34 600 CALHOUN ST S & MAIN ST E
14F004215 18:12:38 48 SUSPICIOUS 800 TENNESSEE AVE
14F004217 18:13:16 48 SUSPICIOUS 2500 LAFAYETTE ST S
14F004216 18:13:55 27 RECKLESS DRI 3700 TAYLOR ST & ARDMORE AVE
14F004224 18:14:09 37 PARKING VIOL 1500 THIRD ST
14F004221 18:15:09 27 RECKLESS DRI 2900 COLISEUM BLVD W & GOSHEN RD
14F004225 18:16:01 50 BURGLARY 3900 NEWPORT AVE
14F004220 18:17:45 108 FOLLOWUP 7000 JOHN ST
14F004219 18:18:18 37 PARKING VIOL 6000 HANNA ST S
14F004218 18:21:41 46,96 1500 WELLS ST
14F004223 18:28:00 39 STOLEN VEHIC 7300 JEFFERSON BLVD W & ABOITE CEN
14F004222 18:28:24 33,34 30700 I 69 SB
14F004226 18:35:30 113 SHOTS FIRED 3000 BARR ST S
14F004227 18:40:57 1 MEET 2600 STATE BLVD E & BALDWIN DR
14F004228 18:43:20 911 HANG UP 3400 DIPLOMAT DR
14F004229 18:50:58 66 MENTALLY ILL 5100 TRUEMPER WAY
14F004233 18:54:56 44LM 7900 DECATUR RD
14F004230 18:58:32 51 THEFT 4200 COLDWATER RD
14F004234 19:03:50 33,34 2800 ABBOTT ST & MANFORD ST
14F004232 19:05:34 27 RECKLESS DRI 2700 STATE BLVD E & BEACON ST
14F004231 19:05:55 33,34 8800 LIMA RD & WALLEN RD W
14F004235 19:11:07 911 HANG UP 3300 HERITAGE DR
14F004236 19:19:39 25HS HIT SKIP 600 STATE BLVD E & PARNELL AVE
14F004238 19:27:03 44LM 300 RAYS CREEK WAY
14F004237 19:27:55 14 WARRANT 1400 CALHOUN ST S & BAKER ST E
14F004239 19:30:44 911 HANG UP 3700 WASHINGTON BLVD E
14F004240 19:38:25 46 DOMESTIC 8200 BRIDGEWAY DR
14F004243 19:43:19 66 MENTALLY ILL 4900 BLUFFTON RD
14F004247 19:43:54 44LM 3100 WELLS ST
14F004241 19:45:57 33,34 600 CLINTON ST S & MAIN ST E
14F004244 19:46:13 15 ASSIST 2600 RIVER PARK DR
14F004242 19:46:28 30 TRAFFIC STOP 1600 LAFAYETTE ST S & MURRAY ST
14F004245 19:52:13 36 OCCUPIED VEH 4100 COVENTRY LN & ABOITE CENTER R
14F004246 19:55:16 34 TRAFF HAZARD 1400 THIRD ST
14F004248 20:01:15 40A AUDIBLE 3700 ARLINGTON AVE
14F004249 20:10:15 96JO 2900 COLISEUM BLVD W
14F004250 20:14:18 43 DISTURBANCE 4200 COLDWATER RD
14F004251 20:14:40 36 OCCUPIED VEH 8800 BLUFFTON RD & DUNKELBERG RD
14F004252 20:19:47 911 HANG UP 300 MCKINNIE AVE
14F004255 20:25:48 43 DISTURBANCE 500 HUFFMAN ST
14F004253 20:26:20 63 CONTACT 500 KINNAIRD AVE
14F004254 20:29:50 34 TRAFF HAZARD 3400 COPPER HILL RUN
14F004256 20:34:01 96JO 1900 PAPERMILL XING
14F004257 20:42:23 16V PICKUP VID 00 MAIN ST E
14F004258 20:44:47 33 DISABLED VEH 3900 HESSEN CASSEL RD & DIPLOMAT D
14F004259 20:55:27 46,96 2600 HOLTON AVE
14F004263 20:56:32 43 DISTURBANCE 3400 LORAINE AVE
14F004262 20:56:55 46 DOMESTIC 6800 RAMBLEWOOD DR
14F004260 20:57:07 30 TRAFFIC STOP 6600 ILLINOIS RD & I 69 NB
14F004261 20:57:19 51 THEFT 7300 LIMA RD
14F004264 20:58:06 40A AUDIBLE 8000 BLUFFTON RD
14F004266 21:03:52 46,96 1000 WASHINGTON BLVD W
14F004265 21:03:58 23,35 VAND VEH 6700 HANNA ST S
14F004269 21:06:30 40A AUDIBLE 2600 WASHINGTON BLVD E
14F004268 21:06:39 34 TRAFF HAZARD 5100 COVINGTON RD & WASHINGTON RD
14F004267 21:08:18 30 TRAFFIC STOP 5700 ANTHONY BLVD S & PAULDING RD
14F004270 21:11:27 48,36 1700 LAFAYETTE ST S & WALLACE ST E
14F004271 21:13:10 18 WORK TRAFFIC 8600 BLUFFTON RD & AIRPORT EXPRESS
14F004273 21:13:51 911 HANG UP 4000 SOUTHPARK DR
14F004272 21:14:04 44 NUISANCE 1000 CURDES AVE
14F004274 21:14:34 102,TX THREATS 1000 LUDWIG RD W
14F004276 21:17:02 44 NUISANCE 2100 HOBSON RD
14F004275 21:17:17 911 HANG UP 1000 LOUISEDALE DR
14F004278 21:20:17 40A AUDIBLE 900 LIBRARY PLAZA
14F004279 21:22:46 34 TRAFF HAZARD 9900 BLUE MOUND DR
14F004277 21:23:25 51 THEFT 7900 JEFFERSON BLVD W
14F004280 21:23:51 25 PD ACCIDENT 7600 JEFFERSON BLVD W & JEFFERSON
14F004281 21:25:00 46 DOMESTIC 7600 TIPPERARY TRL
14F004282 21:26:21 43 DISTURBANCE 3800 ICE WAY
14F004283 21:28:27 33J LOCKED OUT 5800 COLDWATER RD
14F004284 21:34:54 40A AUDIBLE 2500 BROADWAY
14F004285 21:38:12 911 HANG UP 900 BERRY ST W
14F004286 21:41:48 25 PD ACCIDENT 500 COLISEUM BLVD W
14F004287 21:46:27 911 HANG UP 1400 HARRISON ST N
14F004288 21:48:38 46 DOMESTIC 4100 ANTHONY BLVD S
14F004289 21:52:40 14S SERVING WAR 800 REWILL DR
14F004290 21:54:56 40A AUDIBLE 2600 WASHINGTON BLVD E
14F004291 21:57:02 34 TRAFF HAZARD 600 STATE BLVD E & PARNELL AVE
14F004292 22:02:27 46,96 4300 SPATZ AVE
14F004294 22:03:45 25 PD ACCIDENT 1700 WELLS ST
14F004293 22:05:45 63 CONTACT 7400 MAPLECREST RD
14F004295 22:05:52 30 TRAFFIC STOP 5700 ILLINOIS RD & AVENUE OF AUTOS
14F004296 22:06:42 48 SUSPICIOUS 3000 CENTRAL DR
14F004297 22:10:29 911 HANG UP 500 HIGH ST & ORCHARD ST
14F004298 22:15:11 48 SUSPICIOUS 2300 HARRISON ST S
14F004299 22:17:07 33,34 600 WASHINGTON BLVD E & HANNA ST S
14F004300 22:17:45 129 9500 SARATOGA RD
14F004301 22:19:35 40A AUDIBLE 6700 JEFFERSON BLVD W
14F004302 22:20:40 63 CONTACT 3000 CENTRAL DR
14F004303 22:21:39 34 TRAFF HAZARD 3700 MAPLECREST RD
14F004304 22:26:47 48 SUSPICIOUS 900 FULTON ST & WASHINGTON BLVD W
14F004305 22:27:39 30 TRAFFIC STOP 5800 LIMA RD & WASHINGTON CENTER R
14F004307 22:32:17 45 NEIGHBORHOOD 2100 HOBSON RD
14F004306 22:34:16 30 TRAFFIC STOP 7300 LIMA RD & COOK RD W
14F004308 22:40:43 34 TRAFF HAZARD 5800 ST JOE RD & ST JOE CENTER RD
14F004310 22:43:51 66 MENTALLY ILL 5100 TRUEMPER WAY
14F004309 22:44:55 46 DOMESTIC 600 FRY ST
14F004311 22:46:01 67 INDECENT 400 VIOLET CT
14F004312 22:46:14 53 ARMED ROB 4900 CALHOUN ST S
14F004313 22:49:45 14 WARRANT 1100 SCOTT RD S & ILLINOIS RD
14F004314 23:02:52 30 TRAFFIC STOP 10300 COLDWATER RD & DUPONT RD E
14F004315 23:08:24 911 HANG UP 900 HUGH ST
14F004316 23:10:27 48,35 5800 HEMINGWAY RUN
14F004317 23:12:18 911 HANG UP 6100 STELLHORN RD
14F004319 23:13:16 44LM 3300 CHEVIOT DR
14F004318 23:14:18 101 OPEN DOOR 3200 KILLARNEY PL
14F004320 23:17:30 30 TRAFFIC STOP 3200 WELLS ST & FRANKE PARK DR
14F004321 23:19:23 30 TRAFFIC STOP 200 JEFFERSON BLVD E & BARR ST S
14F004322 23:21:52 43 DISTURBANCE 1800 LUMBARD ST
14F004323 23:23:42 43 DISTURBANCE 3200 WASHINGTON BLVD E
14F004324 23:25:04 48 SUSPICIOUS 500 SHERWOOD TERR E
14F004325 23:26:30 1 MEET 00 MAIN ST E
14F004329 23:27:02 50 BURGLARY 6200 ST JOE RD
14F004326 23:28:17 23,35 VAND VEH 800 BEGUE ST
14F004327 23:29:30 129 2300 FOREST PARK BLVD
14F004328 23:29:42 129 2200 KENSINGTON BLVD
14F004330 23:31:11 40A AUDIBLE 4000 FERGUSON RD W
14F004331 23:36:12 40A AUDIBLE 6000 CLINTON ST N
14F004332 23:38:32 30 TRAFFIC STOP 300 STATE BLVD W & WELLS ST
14F004333 23:38:33 30 TRAFFIC STOP 100 TILL RD E & DAWSONS CREEK BLVD
14F004334 23:39:10 30 TRAFFIC STOP 2100 ST JOSEPH BLVD & NORTHWOOD BL
14F004335 23:43:05 18 WORK TRAFFIC 2300 AIRPORT EXPRESSWAY & BLUFFTON
14F004336 23:43:22 911 HANG UP 7600 BLUFFTON RD
14F004337 23:44:29 40A AUDIBLE 1900 COOK RD W
14F004338 23:45:52 48,36 2600 SCHAPER DR
14F004341 23:48:11 39 STOLEN VEHIC 1100 HIGH ST
14F004340 23:49:14 911 HANG UP 5300 HANNA ST S
14F004342 23:49:24 44 NUISANCE 8600 GULF DR
14F004339 23:49:29 30 TRAFFIC STOP 5800 CLINTON ST N & WASHINGTON CEN
14F004343 23:52:18 30 TRAFFIC STOP 4900 ST JOE RD & DEAN DR
14F004344 23:53:07 48 SUSPICIOUS 2800 CALHOUN ST S
14F004345 23:55:30 33 DISABLED VEH 10800 LIBERTY MILLS RD
14F004346 23:57:44 30 TRAFFIC STOP 2600 ARDMORE AVE & COVINGTON RD
14F004347 23:58:14 30 TRAFFIC STOP 7300 COLDWATER RD & COOK RD E
14F004348 23:58:37 30 TRAFFIC STOP 300 STATE BLVD W & WELLS ST
Amber Alert

All-America City